Hourly Data Report for October 19, 2019

QUALICUM BEACH AIRPORT
BRITISH COLUMBIA
Current Station Operator: ECCC - MSC

49°20'14.000" N
124°23'38.000" W
58.20 m
1026562
71766
VOQ

Download Data

Hourly Data (October 2019)
Hourly Data Report for October 19, 2019
TIME
LST
Temp Definition
°C
Dew Point Definition
°C
Rel Hum Definition
%
Precip. Amount Definition
mm

Wind Dir Definition
10's deg

Wind Spd Definition
km/h
Visibility Definition
km
Stn Press Definition
kPa
Hmdx Definition


Wind Chill Definition


Weather Definition


00:00 7.5 6.5 93 0.5 21 5   99.79     LegendNANA
01:00 7.2 6.5 95 0.1 20 2   99.72     LegendNANA
02:00 6.9 6.3 96 0.0 25 1   99.65     LegendNANA
03:00 6.2 5.6 96 0.0 23 3   99.60     LegendNANA
04:00 6.3 5.9 97 0.0 29 1   99.60     LegendNANA
05:00 5.9 5.5 97 0.0 0 1   99.63     LegendNANA
06:00 6.7 6.3 97 0.0 27 5   99.67     LegendNANA
07:00 7.1 6.6 96 0.3 27 6   99.73     LegendNANA
08:00 7.2 6.6 96 0.6 25 2   99.80     LegendNANA
09:00 7.5 6.9 96 0.9   0   99.88     LegendNANA
10:00 7.5 6.7 95 2.0 28 5   99.96     LegendNANA
11:00 7.8 7.2 96 1.0 33 11   100.05     LegendNANA
12:00 8.6 7.6 94 0.1 33 12   100.11     LegendNANA
13:00 9.4 7.9 90 0.0 31 15   100.17     LegendNANA
14:00 9.9 6.8 81 0.0 32 14   100.26     LegendNANA
15:00 9.5 6.9 84 0.0 30 10   100.33     LegendNANA
16:00 9.5 7.1 85 0.0 29 9   100.42     LegendNANA
17:00 9.3 7.0 86 0.0 28 4   100.48     LegendNANA
18:00 7.0 6.1 94 0.0 27 3   100.56     LegendNANA
19:00 7.2 6.5 95 0.0 24 6   100.60     LegendNANA
20:00 6.1 5.5 96 0.0 23 7   100.66     LegendNANA
21:00 5.7 4.8 94 0.0 24 6   100.74     LegendNANA
22:00 4.1 3.6 97 0.0 19 2   100.74     LegendNANA
23:00 4.7 4.3 97 0.0 21 2   100.79     LegendNANA

Notes on Data Quality.

Legend

  • E = Estimated
  • M = Missing
  • NA = Not Available*
  • [empty] = Indicates an unobserved value
Date modified: